User: anonymous   Login
Location: Unspecified
(0.0000°N, 0.0000°E)
Time: 06:58:17
(UTC+00:00)
Language:

WGS F3 (USA 211) - Orbit

View from above orbital plane
View from above orbital plane
View from above satellite
View from above satellite

Ground track
Ground track

The orbit data is extracted from the following two-line orbital elements,

1 36108U 09068A   18351.09191477 -.00000081  00000-0  00000+0 0  9996
2 36108   0.0095 336.5630 0000711 250.2713 239.9442  1.00269682 33057
Epoch (UTC): 17 December 2018 02:12:21
Eccentricity: 0.0000711
inclination: 0.0095°
perigee height: 35784 km
apogee height: 35790 km
right ascension of ascending node: 336.5630°
argument of perigee: 250.2713°
revolutions per day: 1.00269682
mean anomaly at epoch: 239.9442°
orbit number at epoch: 3305

The dashed part of the orbit path shows where the satellite is in the earth's shadow,  

DLR